Fort Myers Airport, FL

12:09 AM EDT on June 29, 2017 (GMT -0400)
Southwest Florida International

Weather History for KRSW - January, 2014

Change the Weather History Date:

Wednesday, January 29, 2014

  Actual Average Record
Temperature  
Mean Temperature 58 °F -  
Max Temperature 64 °F 74 °F 87 °F (1949)
Min Temperature 51 °F 51 °F 32 °F (1940)
Degree Days  
Heating Degree Days 8    
Growing Degree Days 8 (Base 50)    
Moisture  
Dew Point 58 °F    
Average Humidity 93    
Maximum Humidity 100    
Minimum Humidity 75    
Precipitation  
Precipitation 0.03 in - - ()
Sea Level Pressure  
Sea Level Pressure 30.04 in    
Wind  
Wind Speed 3 mph (NNE)    
Max Wind Speed 18 mph    
Max Gust Speed 24 mph    
Visibility 4 miles    
Events Fog , Rain    
Averages and records for this station are not official NWS values.
T = Trace of Precipitation, MM = Missing Value Source: NWS Daily Summary

Daily Weather History Graph

Daily Weather History Graph

Search for Another Location

Airport or City:

Trip Planner

Search our weather history database for the weather conditions in past years. The results will help you decide how hot, cold, wet, or windy it might be!

Date:

Astronomy

Jan. 29, 2014 Rise Set
Actual Time 7:13 AM EST 6:07 PM EST
Civil Twilight 6:48 AM EST 6:31 PM EST
Nautical Twilight 6:21 AM EST 6:59 PM EST
Astronomical Twilight 5:53 AM EST 7:27 PM EST
Moon 5:47 AM EST 5:04 PM EST
Length of Visible Light 11h 42m
Length of Day
10h 54m
Waning Crescent, 2% of the Moon is Illuminated
Jan 29
Waning Crescent
Jan 30
New
Feb 6
First Quarter
Feb 14
Full
Feb 22
Last Quarter

Hourly Weather History & Observations

Time (EST) Temp. Dew Point Humidity Pressure Visibility Wind Dir Wind Speed Gust Speed Precip Events Conditions
12:12 AM 63.0 °F 61.0 °F 93% 30.03 in 2.5 mi Calm Calm - N/A   Clear
12:20 AM 63.0 °F 61.0 °F 93% 30.03 in 9.0 mi Calm Calm - N/A   Clear
12:53 AM 63.0 °F 61.0 °F 93% 30.01 in 8.0 mi Calm Calm - N/A   Clear
1:03 AM 62.1 °F 60.1 °F 93% 30.02 in 2.5 mi Calm Calm - N/A   Partly Cloudy
1:05 AM 62.1 °F 60.1 °F 93% 30.02 in 0.8 mi Calm Calm - N/A   Mist
1:31 AM 61.0 °F 60.1 °F 97% 30.01 in 0.2 mi Calm Calm - N/A Fog Fog
1:53 AM 60.1 °F 59.0 °F 96% 30.01 in 0.8 mi Calm Calm - N/A   Mist
2:02 AM 60.1 °F 59.0 °F 96% 30.01 in 1.0 mi Calm Calm - N/A   Mist
2:07 AM 61.0 °F 60.1 °F 97% 30.01 in 0.2 mi Calm Calm - N/A Fog Fog
2:25 AM 61.0 °F 60.1 °F 97% 30.00 in 1.0 mi Calm Calm - N/A   Mist
2:30 AM 61.0 °F 60.1 °F 97% 30.00 in 2.0 mi Calm Calm - N/A   Scattered Clouds
2:43 AM 61.0 °F 60.1 °F 97% 30.00 in 1.0 mi SSW 3.5 mph - N/A   Mist
2:47 AM 60.8 °F 60.8 °F 100% 30.00 in 0.2 mi Calm Calm - N/A Fog Fog
2:53 AM 61.0 °F 60.1 °F 97% 29.99 in 0.2 mi Calm Calm - N/A Fog Fog
3:03 AM 61.0 °F 60.1 °F 97% 30.00 in 0.5 mi Calm Calm - N/A Fog Fog
3:14 AM 62.1 °F 61.0 °F 96% 30.00 in 0.2 mi SSW 3.5 mph - N/A Fog Fog
3:53 AM 62.1 °F 61.0 °F 96% 29.99 in 0.2 mi Calm Calm - N/A Fog Fog
4:26 AM 61.0 °F 61.0 °F 100% 30.00 in 0.5 mi Calm Calm - N/A Fog Fog
4:37 AM 60.1 °F 59.0 °F 96% 30.00 in 2.0 mi Calm Calm - N/A   Partly Cloudy
4:44 AM 60.1 °F 59.0 °F 96% 30.00 in 5.0 mi Calm Calm - N/A   Partly Cloudy
4:53 AM 61.0 °F 60.1 °F 97% 30.00 in 7.0 mi Calm Calm - N/A   Clear
5:32 AM 60.1 °F 59.0 °F 96% 30.00 in 8.0 mi Calm Calm - N/A   Scattered Clouds
5:35 AM 60.1 °F 59.0 °F 96% 30.00 in 2.5 mi Calm Calm - N/A   Mostly Cloudy
5:38 AM 60.1 °F 59.0 °F 96% 30.00 in 0.8 mi Calm Calm - N/A   Mist
5:53 AM 61.0 °F 60.1 °F 97% 30.00 in 0.5 mi Calm Calm - N/A Fog Fog
6:06 AM 61.0 °F 60.1 °F 97% 30.00 in 1.8 mi Calm Calm - N/A   Overcast
6:12 AM 61.0 °F 60.1 °F 97% 30.01 in 4.0 mi Calm Calm - N/A   Overcast
6:33 AM 60.1 °F 59.0 °F 96% 30.02 in 2.5 mi Calm Calm - N/A   Scattered Clouds
6:49 AM 60.8 °F 59.0 °F 94% 30.03 in 3.0 mi Calm Calm - N/A   Scattered Clouds
6:53 AM 61.0 °F 60.1 °F 97% 30.02 in 3.0 mi Calm Calm - N/A   Scattered Clouds
7:21 AM 60.1 °F 57.9 °F 93% 30.03 in 2.0 mi SE 5.8 mph - N/A   Scattered Clouds
7:23 AM 60.1 °F 59.0 °F 96% 30.03 in 0.8 mi SE 3.5 mph - N/A   Mist
7:33 AM 60.1 °F 60.1 °F 100% 30.03 in 0.2 mi Calm Calm - N/A Fog Fog
7:49 AM 60.8 °F 60.8 °F 100% 30.04 in 0.2 mi Calm Calm - N/A Fog Fog
7:53 AM 61.0 °F 61.0 °F 100% 30.05 in 0.2 mi North - - N/A Fog Fog
8:01 AM 63.0 °F 63.0 °F 100% 30.05 in 1.0 mi NNE 3.5 mph - N/A   Overcast
8:09 AM 63.0 °F 63.0 °F 100% 30.05 in 3.0 mi North 3.5 mph - N/A   Overcast
8:17 AM 63.0 °F 63.0 °F 100% 30.05 in 2.5 mi NNE 3.5 mph - N/A   Overcast
8:28 AM 63.0 °F 63.0 °F 100% 30.05 in 0.8 mi North 4.6 mph - N/A   Overcast
8:40 AM 64.0 °F 63.0 °F 96% 30.06 in 0.2 mi North 5.8 mph - N/A Fog Fog
8:53 AM 64.0 °F 63.0 °F 96% 30.06 in 0.2 mi North 5.8 mph - N/A Fog Fog
9:00 AM 64.0 °F 64.0 °F 100% 30.07 in 0.5 mi North 9.2 mph - N/A Fog Fog
9:17 AM 63.0 °F 62.1 °F 97% 30.07 in 1.8 mi North 12.7 mph 19.6 mph N/A   Overcast
9:34 AM 62.1 °F 61.0 °F 96% 30.09 in 3.0 mi North 12.7 mph - N/A   Overcast
9:53 AM 62.1 °F 61.0 °F 96% 30.09 in 3.0 mi North 11.5 mph - N/A   Overcast
10:27 AM 60.1 °F 57.0 °F 90% 30.10 in 3.0 mi NNE 16.1 mph - N/A   Overcast
10:53 AM 60.1 °F 55.9 °F 86% 30.09 in 3.0 mi NNE 13.8 mph - N/A   Overcast
11:53 AM 62.1 °F 55.9 °F 80% 30.07 in 10.0 mi NE 11.5 mph - N/A   Overcast
12:53 PM 63.0 °F 55.0 °F 75% 30.07 in 10.0 mi NE 12.7 mph - N/A   Overcast
1:07 PM 63.0 °F 55.0 °F 75% 30.07 in 10.0 mi NE 11.5 mph - N/A   Overcast
1:53 PM 62.1 °F 57.0 °F 84% 30.05 in 9.0 mi NE 9.2 mph - 0.01 in Rain Light Rain
2:13 PM 62.1 °F 57.0 °F 84% 30.05 in 7.0 mi NE 9.2 mph - 0.00 in Rain Light Rain
2:53 PM 62.1 °F 57.0 °F 84% 30.03 in 10.0 mi NE 10.4 mph - 0.00 in   Overcast
3:03 PM 62.1 °F 55.9 °F 80% 30.04 in 10.0 mi NNE 12.7 mph 20.7 mph 0.00 in Rain Light Rain
3:37 PM 61.0 °F 55.0 °F 81% 30.04 in 10.0 mi NE 15.0 mph 20.7 mph 0.00 in Rain Light Rain
3:53 PM 61.0 °F 55.0 °F 81% 30.04 in 10.0 mi NE 12.7 mph - 0.00 in   Overcast
4:12 PM 60.1 °F 55.0 °F 83% 30.05 in 2.5 mi NE 10.4 mph - 0.02 in Rain Light Rain
4:23 PM 59.0 °F 55.9 °F 90% 30.05 in 6.0 mi NE 13.8 mph - 0.02 in Rain Light Rain
4:53 PM 59.0 °F 55.0 °F 87% 30.05 in 10.0 mi NE 11.5 mph 19.6 mph 0.02 in   Overcast
5:15 PM 57.9 °F 55.0 °F 90% 30.08 in 10.0 mi North 10.4 mph - N/A   Overcast
5:24 PM 57.9 °F 55.0 °F 90% 30.08 in 10.0 mi NNE 12.7 mph 19.6 mph N/A   Overcast
5:53 PM 57.0 °F 54.0 °F 89% 30.09 in 10.0 mi NNE 15.0 mph 23.0 mph N/A   Overcast
6:53 PM 55.0 °F 52.0 °F 89% 30.09 in 10.0 mi NNE 10.4 mph 19.6 mph 0.00 in   Overcast
7:53 PM 53.1 °F 48.9 °F 86% 30.11 in 10.0 mi NNE 15.0 mph 24.2 mph N/A   Overcast
8:15 PM 52.0 °F 48.0 °F 86% 30.13 in 10.0 mi NNE 13.8 mph 20.7 mph N/A   Overcast
8:53 PM 52.0 °F 48.0 °F 86% 30.13 in 10.0 mi NNE 15.0 mph 19.6 mph N/A   Overcast
9:53 PM 51.1 °F 48.0 °F 89% 30.15 in 10.0 mi NNE 11.5 mph - N/A   Overcast
10:21 PM 52.0 °F 48.0 °F 86% 30.16 in 10.0 mi NNE 11.5 mph - N/A   Overcast
10:53 PM 52.0 °F 48.0 °F 86% 30.14 in 10.0 mi NNE 12.7 mph - N/A   Overcast
11:53 PM 53.1 °F 50.0 °F 89% 30.12 in 10.0 mi NE 18.4 mph 24.2 mph 0.00 in   Overcast